Regional Weather Roundup
Issued by NWS

Home | Current Version | Previous Version | Text Only | Print | Product List | Glossary Off
Versions: 1 2 3 4 5 6 7 8 9 10 11 12 13 14 15 16 17 18 19 20 21 22 23 24 25 26 27 28 29 30 31 32 33 34 35 36 37 38 39 40 41 42 43 44 45 46 47 48 49 50

000
ASUS45 KTFX 221419
RWRMT
MONTANA HOURLY WEATHER ROUNDUP
NATIONAL WEATHER SERVICE GREAT FALLS MT
819 AM MDT TUE JUL 22 2014

NOTE: "FAIR" INDICATES FEW OR NO CLOUDS BELOW 12000 FEET WITH NO
SIGNIFICANT WEATHER AND/OR OBSTRUCTIONS TO VISIBILITY.

* THESE STATIONS ARE NOT UNDER NWS QUALITY CONTROL. THEY DO NOT
   REPORT WEATHER SUCH AS PRECIPITATION OR FOG.

MTZ001>007-043-221500-
WEST OF THE DIVIDE
CITY           SKY/WX    TMP DP  RH WIND       PRES   REMARKS
KALISPELL      PTCLDY    55  48  77 CALM      30.14R
MISSOULA       CLOUDY    55  45  69 SW3       30.17R
BUTTE          PTSUNNY   55  52  90 SE5       30.29R
MULLAN PASS    CLOUDY    55  34  45 S8        30.23R
* ESSEX        N/A       50  42  74 S9G16      N/A
* LINCOLN      N/A       52  51  96 NW1        N/A
* LOOKOUT PASS N/A       52  43  72 SE1        N/A
* POLSON       N/A       54  45  72 N/A        N/A
* RONAN APT    PTSUNNY   54  48  80 N/A        N/A
* SEELEY LAKE  N/A       45  41  86 N1         N/A
* THOMP F APT  CLOUDY    54  48  80 N2         N/A
* YAAK HILL    N/A       56  48  75 S1         N/A
$$

MTZ008-052>055-221500-
SOUTHWEST MONTANA
CITY           SKY/WX    TMP DP  RH WIND       PRES   REMARKS
BOZEMAN        PTSUNNY   64  52  65 SW5       30.23R
DILLON         PTCLDY    59  54  84 SW5       30.26R
W YELLOWSTONE  PTCLDY    48  46  93 CALM      30.39R
* THREE FORKS  PTSUNNY   61  59  93 N/A        N/A
* BOULDER HILL N/A       55  49  80 S3         N/A
* MONIDA PASS  N/A       52  46  80 SE6        N/A
* RAYNOLDS PAS N/A       50  33  52 S9G15      N/A
* WHITEHALL    N/A       60  54  81 SE1G7      N/A
* WISE RIVER   N/A       54  51  90 E1         N/A
$$

MTZ009>010-012-014-046-048-049-054-221500-
EAST SLOPES AND CENTRAL MONTANA
CITY           SKY/WX    TMP DP  RH WIND       PRES   REMARKS
CUT BANK       CLOUDY    52  50  93 CALM      30.18S
GREAT FALLS    CLOUDY    61  54  78 CALM      30.17R
HELENA         CLOUDY    63  54  73 CALM      30.20R
MALMSTROM AFB  CLOUDY    61  52  72 SE1       30.18R
* CONRAD       CLOUDY    54  54 100 N/A        N/A
* DEARBORN     N/A       61  51  70 S1         N/A
* EAST GLACIER N/A       53  45  74 VRB2       N/A
* MONARCH      N/A       58  45  62 SW12G17    N/A
* PENDROY      N/A       56  53  90 E2         N/A
* ROGERS PASS  N/A       57  46  67 SE4        N/A
* SAINT MARY   N/A       46  44  93 S2         N/A
* SWEET GRASS  N/A       59  54  84 S5         N/A
* WHITE SULPH  N/A       56  52  87 E9G14      N/A
$$

MTZ011-013-016-021-035-040-045-047-050-051-221500-
NORTH CENTRAL MONTANA
CITY           SKY/WX    TMP DP  RH WIND       PRES   REMARKS
HAVRE          PTSUNNY   59  52  78 NE12      30.16R
LEWISTOWN      CLOUDY    61  55  81 SE5       30.21S
* FORT BENTON  CLOUDY    63  52  68 NE3       30.16R
* CHESTER      N/A       61  53  75 E6         N/A
* DENTON       N/A       62  56  81 SE9        N/A
* GEYSER       N/A       60  50  70 W5         N/A
* JUDITH GAP   N/A       59  53  81 N/A        N/A
* LOMA         N/A       61  54  78 NE4        N/A
$$

MTZ017>020-022>027-061-062-221500-
NORTHEAST MONTANA
CITY           SKY/WX    TMP DP  RH WIND       PRES   REMARKS
GLASGOW        PTCLDY    66  55  68 N5        30.16R
GLENDIVE       SUNNY     70  59  68 SW6       30.18S
JORDAN         PTCLDY    66  55  68 CALM      30.16R
SIDNEY         SUNNY     64  61  90 S3        30.18R
WOLF POINT     PTCLDY    63  57  81 CALM      30.17R
* BEAVER HILL  N/A       68  60  76 SW7        N/A
* CIRCLE       N/A       65  61  87 N/A        N/A
* LINDSAY DVD  N/A       67  60  78 S7         N/A
* NAVAJO       N/A       59  57  93 NW7        N/A
* SACO         N/A       56  53  90 NW2        N/A
$$

MTZ028>042-056>058-221500-
SOUTHCENTRAL AND SOUTHEAST MONTANA
CITY           SKY/WX    TMP DP  RH WIND       PRES   REMARKS
BAKER          PTCLDY    72  61  68 SE6       30.20R
BILLINGS       PTCLDY    66  54  65 CALM      30.19R
LIVINGSTON     PTCLDY    63  52  68 NW3       30.23R
MILES CITY     PTSUNNY   70  61  73 E3        30.15S
* LAUREL APT   PTCLDY    64  54  70 N/A        N/A
* ROUNDUP APT  PTCLDY    63  57  81 N/A        N/A
* ALZADA       N/A       64  60  87 E2         N/A
* HYSHAM       N/A       66  53  63 W5         N/A
* LAME DEER    N/A       71  56  59 E2         N/A
* REED POINT   N/A       62  53  73 W4         N/A
* ROSCOE HILL  N/A       61  47  60 NW5        N/A
$$

REGIONAL REPORTS...DAKOTAS
CITY           SKY/WX    TMP DP  RH WIND       PRES   REMARKS
WILLISTON      SUNNY     66  61  84 CALM      30.15S
DICKINSON      SUNNY     63  61  93 CALM      30.18R
CROSBY         N/A       63  63 100 E3        30.18R
TIOGA          PTSUNNY   63  63 100 S3        30.20R
WATFORD CITY   SUNNY     63  63 100 SE3       30.16R
BISMARCK       PTCLDY    70  63  79 NW6       30.17R
GRAND FORKS    SUNNY     68  61  78 N9        30.07R
FARGO          SUNNY     70  61  73 N16       30.07R
BUFFALO SD     PTCLDY    64  61  90 CALM      30.15R
RAPID CITY     SUNNY     72  64  76 NW6       30.22R
$$

REGIONAL REPORTS...WYOMING/IDAHO/WASHINGTON
CITY           SKY/WX    TMP DP  RH WIND       PRES   REMARKS
GILLETTE       PTSUNNY   73  57  57 S8        30.23S
SHERIDAN       PTCLDY    63  55  75 CALM      30.21R
CODY           PTCLDY    70  45  41 SW3       30.24S
YELLOWSTONE LA SUNNY     46  45  96 CALM      30.47R
SALMON         PTCLDY    64  52  65 CALM      30.19R
MULLAN PASS    CLOUDY    55  34  45 S8        30.23S
SAND POINT     LGT RAIN  55  50  83 W3        30.08R
SPOKANE        CLOUDY    63  48  58 SE6       30.07R
$$

REGIONAL REPORTS...ALBERTA
CITY           SKY/WX    TMP DP  RH WIND       PRES   REMARKS
CALGARY        CLOUDY    57  52  83 SE9       30.16R
LETHBRIDGE     PTSUNNY   55  54  96 E3        30.16R
MEDICINE HAT   PTCLDY    59  52  78 E6        30.18R
EDMONTON       SUNNY     59  55  87 SE7       30.13S
WATERTON GATE  N/A       55  52  90 S1         N/A
CARDSTON       N/A       55  54  96 CALM       N/A
MILK RIVER     N/A       55  50  83 SE1        N/A
$$

REGIONAL REPORTS...SASKATCHEWAN
CITY           SKY/WX    TMP DP  RH WIND       PRES   REMARKS
SWIFT CURRENT  SUNNY     59  57  93 VRB2      30.20R
MOOSE JAW      SUNNY     59  59 100 NW2       30.19R
REGINA         N/A       66  54  65 E3        30.18R
VAL MARIE      N/A       57  57 100 NE9        N/A
ASSINIBOIA     N/A       61  59  93 NE3        N/A
CORONACH       N/A       61  61 100 N8         N/A

$$




USA.gov is the U.S. government's official web portal to all federal, state and local government web resources and services.